Torna al catalogo

KUIPER-00084

AttivoComunicazioniLEO
NORAD 64830·PAYLOAD·🇺🇸 United States

Lanciato Jul 16, 2025 da Cape Canaveral Space Force Station

Loading…

Prossimi Passaggi (prossime 24 ore)

TLE

AggiornatoSource: CelesTrak SupGP

Epoca: Sep 14, 2026, 23:37 UTC

1 64830C 25151Q   26257.98443287 -.00001240  00000+0 -16229-3 0  2570
2 64830  51.8999 188.5304 0000690  96.3923 323.1828 14.79923167    17

Traccia KUIPER-00084 in tempo reale con AllMySat

Download on the App Store